Погода в Угуте

Погода в Угуте : погода сейчас, прогноз погоды и архив. Всё, что Вы хотите узнать о погоде в Угуте!

Поиск расширенной информации на нашем сайте:

Другие новости

Новости СМИ2

Главная страница сайта

Новости сайта

02.10.2013

Напоминаем, что на нашем новом сайте вы можете получить высокодетализированные прогнозы погоды по пунктам России, СНГ и мира (включающие важные для авиации метеовеличины, такие как направление и скорость ветра, видимость, явления погоды, количество и форма облачности, нижняя и верхняя граница облачности), а также ознакомиться с разнообразными материалами по авиационной метеорологии и подборкой полезных ссылок на эту тему.

Сайт Метеоцентр.Азия посвящён разработке технологий оптимизации авиаметеорологического обслуживания, включая проектирование и перспективное создание нескольких автоматизированных авиаметеорологических систем:
- система выпуска высокодетальных прогностических карт явлений погоды для нижнего воздушного пространства по России и ближнему зарубежью;
- система верификации прогнозов TAF (выпускаемых синоптиками официальных АМСГ РФ и ближнего зарубежья) и AUTOTAF (выпускаемых сайтом Метеоцентр.Азия) - выявление ошибок, онлайн-сопоставление с фактической погодой METAR, автоматическое внесение коррективов в прогнозы при резком отклонении фактической погоды от прогноза, подсчёт оправдываемости прогнозов по элементам и в целом;
- система обработки, анализа и отображения авиаметеорологической информации для применения провайдерами метеорологической информации.


Погода в Угуте - сегодня

Время (UTC), дата Ветер
(°,м/с) 
Видим.   Явления Облачность Т
(°С)
Тd
(°С)
f(%) Тe
(°С)
Pmin
(гПа)
dP
(гПа)
Po
(мм)
O2
(г/м3)
Тmin Tmax R s Состояние
почвы
21 14.01.17 140 (ЮВ) 10 км  слаб. снег  10/0 средняя 
[Ac As]
-23.7 -26.7 76 -24  1033.4  0.1  770  341           
00 15.01.17 150 (ЮВ) 10 км  {снег}  10/0 средняя 
[Ac As]
-22.3 -25.1 78 -23  1033  -0.4  770  339           
03 15.01.17 160 (Ю) 10 км  слаб. снег  10/0 средняя 
[Ac As]
-20.5 -23.1 80 -23  1032.5  -0.4  769  337  -23.8    0.6  69  равномерный
сухой снег
100% 
06 15.01.17 150 (ЮВ) 10 км  слаб. снег  10/0 средняя 
[Ac As]
-18.4 -20.8 81 -21  1030.3  -2.2  768  333           
09 15.01.17 170 (Ю) 10 км  слаб. снег  10/0 средняя 
[Ac As]
-17.4 -19.7 82 -18  1030.2  768  332           
12 15.01.17 180 (Ю) 10 км  {снег}  10/0 средняя 
[Ac As]
-16.4 -18.6 83 -17  1031.3  1.1  768  331           
15 15.01.17 160 (Ю) 10 км  слаб. снег  10/0 средняя 
[Ac As]
-15.7 -18 82 -16  1031.8  0.5  769  330    -15.7     
18 15.01.17 160 (Ю) 10 км  слаб. снег  10/0 средняя 
[Ac As]
-14.6 -16.8 83 -15  1031.7  -0.1  769  329           
21 15.01.17 180 (Ю) 10 км  {снег}  10/0 средняя 
[Ac As]
-13.7 -15.5 86 -14  1032  0.3  769  328           
00 16.01.17 200 (Ю) 10 км  {снег}  10/0 средняя 
[Ac As]
-12.8 -14.6 86 -13  1031.4  -0.5  769  326           
03 16.01.17 190 (Ю) 10 км  слаб. снег  10/0 средняя 
[Ac As]
-12.7 -14.5 86 -13  1031.1  -0.3  768  326  -15.7    0.3  72  равномерный
сухой снег
100% 
06 16.01.17 220 (ЮЗ) 10 км  слаб. снег  10/0 средняя 
[Ac As]
-12.4 -14.3 86 -16  1030.9  -0.2  768  326           
09 16.01.17 210 (ЮЗ) 10 км  {снег}  10/0 средняя 
[Ac As]
-13 -15.1 84 -16  1030.6  -0.4  768  326           
12 16.01.17 210 (ЮЗ) 10 км  {снег}  10/0 верхняя 
[Cs]
-15.1 -17.2 84 -17  1030.7  0.1  768  329           
15 16.01.17 220 (ЮЗ) 10 км    3/0 верхняя 
[Ci fib]
-15.8 -18.1 82 -20  1030.8  0.1  768  330    -12.4       
18 16.01.17 210 (ЮЗ) 10 км    4/0 верхняя 
[Ci fib]
-17.8 -20.1 82 -20  1030.8  768  333           
21 16.01.17 200 (Ю) 10 км    10/0 
[]
-16.4 -18.6 83 -19  1030.5  -0.3  768  331           
00 17.01.17 200 (Ю) 10 км    3/0 средняя 
[Ac trans]
-17.4 -19.7 82 -20  1030.6  0.1  768  332           
03 17.01.17 220 (ЮЗ) 10 км    3/0 верхняя 
[Ci fib]
-17.5 -19.9 82 -21  1030.7  0.1  768  332  -17.8      72  равномерный
сухой снег
100% 
06 17.01.17 210 (ЮЗ) 10 км    ясно 
-17.2 -19.6 82 -21  1030.1  -0.6  767  332           
09 17.01.17 220 (ЮЗ) 10 км    4/0 средняя 
[Ac trans]
-14.3 -16.7 82 -19  1029.4  -0.5  767  328           
12 17.01.17 230 (ЮЗ) н/о    н/о 
-14.8 -17 83 -18  1030  0.5  767  328           
15 17.01.17 230 (ЮЗ) 10 км    8/0 средняя 
[Ac trans]
-14.9 -17.1 83 -19  1030.5  0.5  768  329    -14.1       
18 17.01.17 230 (ЮЗ) 10 км    8/0 средняя 
[Ac trans]
-15.5 -17.6 84 -19  1030.6  0.1  768  330           
21 17.01.17 230 (ЮЗ) 10 км    10/0 средняя 
[Ac As]
-15.3 -17.4 84 -18  1030.7  768  329           
Время (UTC), дата Ветер
(°,м/с) 
Видим.   Явления Облачность Т
(°С)
Тd
(°С)
f(%) Тe
(°С)
Pmin
(гПа)
dP
(гПа)
Po
(мм)
O2
(г/м3)
Тmin Tmax R s Состояние
почвы

Для получения пояснительной информации подведите курсор к названию столбца.

ПОГОДА в Угуте - архив

Всё, что Вы хотите узнать о погоде в Угуте - удобно и подробно!

Выберите нужную дату (начиная с 1 января 2015* года) и нажмите кнопку "Найти".
Будут отображены архивные сводки погоды по пункту Угут, начиная с указанной даты.


Отображать данные в формате CSV (для использования в таблицах Excel)


Внимание! Наш архив погоды предназначен исключительно для личного некоммерческого использования в познавательных целях. Если Вам необходимы официальные справки о состоянии погоды (для производственных, юридических, коммерческих и т.п. целей), обращайтесь в органы Росгидромета.

*Примечание: данная дата относится к архиву по метеостанциям СССР (Россия, СНГ, Балтия).
Архив по метеостанциям Зарубежной Европы и Азии (кроме Китая) хранится 10 дней, по другим регионам земного шара (Китай, Африка, Америка, Австралия, Океания) - 1 день.

Угут - район местоположения метеостанции


Название, широта, долгота, высота метеостанции:
Угут 60.5°ш. 74°д. 48 м над ур. моря [Российская Федерация]

Дополнительная информация

В oтличие oт бoльшинства пoгoдных сайтoв мы публикуем пoдрoбную метеoинфoрмацию в детальнoм прoфессиoнальнoм фoрмате.

Характеристики температуры и влажнoсти вoздуха измеряются на высoте 2 м в тени вдали oт зданий и деревьев.
Скoрoсть ветра измеряется на высoте 10 м (на урoвне рoста челoвека скoрoсть ветра ниже в 1.5-2 раза). Если метеoстанция нахoдится в гoрoде или в лесу, тo скoрoсть ветра занижена на 2-4 м/с пo сравнению с oткрытым местoм. Скoрoсть ветра над акватoриями крупных рек и oзёр, а также на вершинах хoлмoв на 2-5 м/с выше, чем в oбычных услoвиях.
Атмoсфернoе давление в разных тoчках местнoсти мoжет значительнo oтличаться oт давления на метеoстанции, в зависимoсти oт услoвий рельефа (при пoдъёме на 10 м давление пoнижается примернo на 1 мм рт.ст.).